Zurück zum Katalog

RADUGA 26

AktivMilitärGEO
NORAD 21016·PAYLOAD·🇷🇺 Russia

Gestartet Dec 20, 1990 von Baikonur Cosmodrome

Loading…

TLE

AktuellSource: Space-Track

Epoche: Sep 13, 2026, 19:14 UTC

1 21016U 90112A   26256.80178817  .00000056  00000-0  00000-0 0  9995
2 21016  12.7593 337.2873 0002923 128.5739 229.7384  1.00288790131143

Verfolge RADUGA 26 in Echtzeit mit AllMySat

Download on the App Store